User: anonymous   Login
Location: Unspecified
(0.0000°N, 0.0000°E)
Time: 23:20:14
(UTC+02:00)
Language:

Ariane H10 - Orbit

View from above orbital plane
View from above orbital plane
View from above satellite
View from above satellite

Ground track
Ground track

The orbit data is extracted from the following two-line orbital elements,

1 21727U 91067B   14294.33979249  .00000053  00000-0  35849-3 0  3116
2 21727 004.6026 008.9451 7185846 082.9474 356.0537 02.31408515155457
Epoch (UTC): 21 October 2014 08:09:18
Eccentricity: 0.7185846
inclination: 4.6026°
perigee height: 416 km
apogee height: 35115 km
right ascension of ascending node: 8.9451°
argument of perigee: 82.9474°
revolutions per day: 2.31408515
mean anomaly at epoch: 356.0537°
orbit number at epoch: 15545

The dashed part of the orbit path shows where the satellite is in the earth's shadow,  

DLR